Preview of NWS' New Version of Forecast
This preview is not operational and should not be used for support decisions.

Regional Weather Roundup (RWR)

Issued by Gray - Portland, ME (GYX)

                            
000
ASUS41 KGYX 250910
RWRGYX
WEATHER ROUNDUP FOR MAINE AND NEW HAMPSHIRE
NATIONAL WEATHER SERVICE GRAY ME
500 AM EDT SAT MAY 25 2019

MEZ002-005-006-010-012-015-018-020-021-024-026-027-029-251000-
MAINE
  
CITY           SKY/WX    TMP DP  RH WIND       PRES   REMARKS
PORTLAND       FAIR      47  43  86 NW6       30.13R                  
SANFORD        FAIR      38  37  97 CALM      30.15R                  
BAR HARBOR     FAIR      39  39 100 CALM      30.08R                  
WISCASSET      FAIR      38  36  92 CALM      30.13R                  
ROCKLAND       FAIR      44  43  96 W7        30.10R                  
FRYEBURG       FAIR      40  40 100 CALM      30.14S                  
LEWISTONAUBURN FAIR      40  40 100 CALM      30.13R                  
AUGUSTA        FAIR      46  44  93 CALM      30.12R                  
WATERVILLE     FAIR      41  41 100 CALM      30.09R                  
BANGOR         FAIR      38  37  97 CALM      30.10R                  
GREENVILLE       N/A     46  41  82 NE5       30.10R                  
MILLINOCKET    FAIR      44  41  89 CALM      30.10R                  
HOULTON        FAIR      35  34  96 CALM      30.07R                  
PRESQUE ISLE   FAIR      38  37  97 CALM      30.09R                  
FRENCHVILLE    FAIR      44  36  73 NW7       30.07R                  
CARIBOU        FAIR      44  37  76 CALM      30.07R                  
$$

NHZ002-005-008-009-011-012-014-251000-
NEW HAMPSHIRE
  
CITY           SKY/WX    TMP DP  RH WIND       PRES   REMARKS
PORTSMOUTH     PTCLDY    47  46  95 W5        30.13R                  
ROCHESTER      FAIR      43  40  89 NW7       30.14R                  
NASHUA         FAIR      44  44 100 CALM      30.16S                  
MANCHESTER     FAIR      48  45  89 CALM      30.15R                  
CONCORD        FAIR      41  39  93 CALM      30.17R                  
LACONIA        FAIR      44  43  96 CALM      30.16S                  
PLYMOUTH       FAIR      39  39  98 CALM      30.17S                  
BERLIN         FOG       34  31  88 CALM      30.17S VSB 1/4          
WHITEFIELD     FOG       34  32  92 CALM      30.18S VSB 1/4          
JAFFREY        FAIR      41  38  89 CALM      30.17F                  
KEENE          FOG       44  44 100 CALM      30.18S VSB 1/4          
LEBANON        FOG       47  44  90 CALM      30.17S VSB 1/4          
MT WASHINGTON  PTCLDY    34  30  86 N20         N/A                   
$$

VTZ005-007-008-251000-
VERMONT
  
CITY           SKY/WX    TMP DP  RH WIND       PRES   REMARKS
ST JOHNSBURY     N/A     43  43 100 MISG      30.17S                  
MONTPELIER     FOG       43  42  97 CALM      30.21S VSB 1/4          
BURLINGTON     FAIR      45  43  93 CALM      30.17R                  
$$

MAZ007-012-024-CTZ003-RIZ002-NYZ038-NYZ072-251000-
SOUTHERN NEW ENGLAND AND NY
  
CITY           SKY/WX    TMP DP  RH WIND       PRES   REMARKS
BOSTON         FAIR      55  43  63 W8        30.16R                  
WORCESTER      FAIR      47  45  93 NW6       30.16F                  
NANTUCKET      FAIR      48  45  89 NW5       30.15R                  
PROVIDENCE     FAIR      49  46  90 W3        30.18R                  
HARTFORD       FAIR      51  47  86 CALM      30.17F                  
ALBANY         FAIR      47  44  90 CALM      30.18S                  
NEW YORK CITY  FAIR      57  48  72 S8        30.17R                  
$$

ANZ081-ANZ082-ANZ150-NHZ014-MEZ023>029-251000-
COASTAL MARINE OBSERVATIONS
  
STATION/POSITION TIME  TEMP    WIND        PRES    WAVE
                       AIR SEA DIR/SP/G            HT/PER
                 (UTC) (F)     (DEG/KT/KT) (MB)    (FT/S)
ISLE OF SHOALS   0900   50     300/ 12/ 12 1020.1R
JEFFREYS LEDGE   0838      47                N/A     3/ 8
GEORGES BANK BUO 0850   46 44  340/ 14/ 16 1017.0R   9/ 8
$$

.............KEY..............
   WCI - WIND CHILL
   TC  - TEMPERATURE IN CELSIUS
   VSB - VISIBILITY IN MILES
   HX  - HEAT INDEX
   FAIR- INDICATES FEW OR NO CLOUDS BELOW 12,000 FT, WITH NO 
         SIGNIFICANT WEATHER AND/OR OBSTRUCTIONS TO VISIBILITY.